www.pogodaiklimat.ru

Погода и климат >> Архив погоды >> Пакистан >> Хайдарабат


ПОГОДА в Хайдарабате

  • Прогноз погоды в Хайдарабате
  • Монитор погоды в Хайдарабате

АРХИВ ПОГОДЫ в Хайдарабате

Время (UTC), дата Ветер
(напр.,м/с)
 
Видим.   Явления Облачность Т
(С)
Тd
(С)
f
(%)
Тe
(С)
Тes
(С)
Комфортность P
(гПа)
Po
(гПа)
Тmin
(С)
Tmax
(С)
R
(мм)
R24
(мм)
S
(см)
00 9.09 ЮЗ 2 4000 м 6/4 1050 м
[Sc Ac trans]
+29.5 +25.3 78 +43 +43 опасность
перегрева
1000.6 995.8
03 9.09 штиль 0 4000 м 6/4 1050 м
[Sc Ac trans]
+30.0 +25.8 78 +45 +47 опасность
перегрева
1001.2 996.4 +26.5
06 9.09 штиль 0 4000 м ясно +36.5 +25.5 53 +51 +73 опасность
перегрева
1001.4 996.7
09 9.09 штиль 0 4000 м ясно +38.0 +24.8 47 +51 +72 опасность
перегрева
999.5 994.8
12 9.09 Ю 4 4000 м ясно +37.0 +24.4 49 +49 +51 опасность
перегрева
998.5 993.8 +38.5
15 9.09 Ю 1 4000 м ясно +34.0 +25.7 62 +49 +49 опасность
перегрева
999.7 994.9
18 9.09 штиль 0 4000 м ясно +31.5 +27.4 79 +50 +50 опасность
перегрева
1001.6 996.8
21 9.09 штиль 0 4000 м ясно +31.5 +27.4 79 +50 +50 опасность
перегрева
1001.6 996.8
00 10.09 ЮЗ 3 4000 м ясно +28.5 +25.0 81 +41 +41 опасность
перегрева
999.6 994.8
03 10.09 ЮЗ 3 4000 м 4/0
[Ac trans]
+30.0 +25.1 75 +43 +45 опасность
перегрева
1001.0 996.2 +26.1
06 10.09 ЮЗ 3 4000 м 6/4 1050 м
[Sc Ac trans]
+35.0 +26.8 63 +53 +59 опасность
перегрева
1001.4 996.7
09 10.09 ЮЗ 8 4000 м 9/5 1050 м
[Sc Ac trans]
+35.5 +27.4 63 +54 +55 опасность
перегрева
999.9 995.2
12 10.09 ЮЗ 6 4000 м 9/5 1050 м
[Sc Ac trans]
+36.0 +27.9 63 +56 +56 опасность
перегрева
998.8 994.1 +38.0
15 10.09 Ю 3 4000 м 3/0
[Ac trans]
+32.0 +27.2 76 +50 +50 опасность
перегрева
1001.4 996.6
18 10.09 Ю 6 4000 м ясно +30.0 +26.5 82 +46 +46 опасность
перегрева
1001.7 996.9
21 10.09 ЮЗ 2 4000 м ясно +29.5 +26.0 81 +44 +44 опасность
перегрева
1000.8 996.0
00 11.09 ЮЗ 3 4000 м ясно +29.0 +26.2 85 +44 +44 опасность
перегрева
1000.9 996.1
03 11.09 ЮЗ 3 4000 м ясно +29.0 +26.0 84 +44 +47 опасность
перегрева
1001.8 997.0 +28.1
06 11.09 ЮЗ 5 4000 м ясно +35.0 +25.3 57 +49 +57 опасность
перегрева
1002.5 997.8
09 11.09 Ю 3 4000 м ясно +38.0 +24.8 47 +51 +65 опасность
перегрева
1001.3 996.6
12 11.09 ЮЗ 6 4000 м ясно +36.0 +25.6 55 +51 +52 опасность
перегрева
1000.4 995.7 +38.5
15 11.09 Ю 3 4000 м ясно +33.0 +26.1 67 +49 +49 опасность
перегрева
1002.3 997.5
18 11.09 ЮЗ 5 4000 м ясно +29.5 +26.0 81 +44 +44 опасность
перегрева
1004.4 999.6
21 11.09 ЮЗ 2 4000 м ясно +29.0 +25.5 81 +43 +43 опасность
перегрева
1003.6 998.8
00 12.09 ЮЗ 3 4000 м ясно +28.0 +24.4 81 +39 +39 очень
душно
1003.1 998.2
03 12.09 ЮЗ 3 4000 м ясно +28.5 +25.0 81 +41 +44 опасность
перегрева
1004.0 999.2 +26.1
06 12.09 ЮЗ 5 4000 м 4/0
[Ci fib]
+34.0 +24.1 56 +46 +53 опасность
перегрева
1004.3 999.6
09 12.09 ЮЗ 3 4000 м 5/0
[Ci fib]
+37.0 +24.4 49 +49 +62 опасность
перегрева
1002.4 997.7
12 12.09 ЮЗ 9 4000 м 5/0
[Ci fib]
+35.0 +23.7 52 +46 +46 опасность
перегрева
1001.5 996.8 +37.5
15 12.09 ЮЗ 5 4000 м 5/0
[Ci fib]
+31.0 +23.9 66 +43 +43 опасность
перегрева
1002.9 998.1
18 12.09 ЮЗ 5 4000 м ясно +29.0 +24.0 74 +40 +40 очень
душно
1005.0 1000.2
21 12.09 ЮЗ 4 4000 м ясно +28.5 +23.5 74 +39 +39 очень
душно
1004.1 999.3
00 13.09 ЮЗ 4 4000 м ясно +27.5 +23.9 81 +38 +38 очень
душно
1003.9 999.0
03 13.09 ЮЗ 9 4000 м 8/4 750 м
[St Ac trans]
+28.5 +23.5 74 +39 +39 очень
душно
1004.2 999.4 +25.0
06 13.09 ЮЗ 6 4000 м 8/5 1050 м
[Sc Ac trans]
+33.0 +24.6 61 +46 +48 опасность
перегрева
1004.5 999.7
09 13.09 ЮЗ 2 4000 м 6/4 1050 м
[Sc Ac trans]
+36.5 +24.6 51 +49 +57 опасность
перегрева
1002.3 997.6
12 13.09 ЮЗ 4 4000 м 8/5 1050 м
[Sc Ac trans]
+35.5 +24.3 52 +47 +48 опасность
перегрева
1001.5 996.8 +37.4
15 13.09 ЮЗ 4 4000 м 3/0
[Ac trans]
+31.5 +24.4 66 +44 +44 опасность
перегрева
1003.6 998.8
18 13.09 ЮЗ 3 4000 м 4/0
[Ac trans]
+29.0 +24.8 78 +41 +41 опасность
перегрева
1004.2 999.4
21 13.09 ЮЗ 3 4000 м 3/0
[Ac trans]
+28.0 +23.7 77 +38 +38 очень
душно
1003.4 998.5
00 14.09 ЮЗ 3 4000 м ясно +27.5 +23.9 81 +38 +38 очень
душно
1002.8 997.9
03 14.09 ЮЗ 3 4000 м 4/0
[Ci fib]
+29.0 +24.8 78 +41 +44 опасность
перегрева
1003.7 998.9 +26.1
06 14.09 ЮЗ 7 4000 м ясно +34.5 +24.7 57 +48 +52 опасность
перегрева
1004.0 999.3
09 14.09 Ю 3 4000 м ясно +37.5 +23.4 45 +48 +62 опасность
перегрева
1002.3 997.6
12 14.09 Ю 7 4000 м 8/0
[Ci fib]
+36.0 +23.2 48 +46 +47 опасность
перегрева
1001.7 997.0 +38.0
15 14.09 Ю 3 4000 м 8/0
[Ci fib]
+31.0 +25.4 72 +45 +45 опасность
перегрева
1003.2 998.4
18 14.09 ЮЗ 3 4000 м 6/4 1050 м
[Sc Ac trans]
+30.0 +25.1 75 +43 +43 опасность
перегрева
1004.9 1000.1
21 14.09 ЮЗ 3 4000 м 6/5 1050 м
[Sc Ac trans]
+28.5 +23.5 74 +39 +39 очень
душно
1004.0 999.2
00 15.09 ЮЗ 3 4000 м 6/5 1050 м
[Sc Ac trans]
+28.0 +23.7 77 +38 +38 очень
душно
1003.7 998.8
03 15.09 ЮЗ 2 4000 м 5/3 300 м
[Sc Ac trans]
+29.5 +24.5 75 +42 +44 опасность
перегрева
1005.1 1000.3 +26.1
06 15.09 ЮЗ 3 4000 м 5/3 1050 м
[Sc Ac trans]
+35.0 +24.5 55 +48 +55 опасность
перегрева
1005.7 1001.0
09 15.09 ЮЗ 7 4000 м 3/0
[Ac trans]
+37.5 +24.2 47 +49 +53 опасность
перегрева
1003.5 998.8
12 15.09 ЮЗ 6 4000 м 5/0
[Ac trans]
+36.0 +24.0 50 +47 +48 опасность
перегрева
1002.3 997.6 +38.0
15 15.09 ЮЗ 2 4000 м 4/0
[Ac trans]
+31.5 +24.4 66 +44 +44 опасность
перегрева
1003.6 998.8
18 15.09 ЮЗ 3 4000 м 3/0
[Ac trans]
+29.5 +23.8 71 +40 +40 очень
душно
1004.6 999.8
21 15.09 ЮЗ 2 4000 м 4/0
[Ac trans]
+28.5 +24.2 78 +40 +40 очень
душно
1003.4 998.6

 

Местоположение метеостанции Хайдарабат (Пакистан): широта 25.38 долгота 68.42 высота над уровнем моря 30 м.

В архиве по умолчанию представлена погода в Хайдарабате за последнюю неделю. Архивные данные за месяц целиком и за предыдущие месяцы, начиная с января 2011 года, Вы можете получить, выбрав интересующий диапазон дат из раскрывающегося списка и нажав кнопку "Ввод!".


*Определитесь, кто Вы:
робот инопланетянин человек

Внимание! Время в таблицах - всемирное. Для получения местного времени необходимо прибавить поправку, которая равна 5 ч.

Смотрите также архив погоды в соседних городах и на ближайших метеорологических станциях:

Погода в Сакранде (Пакистан) (32 км)
Погода в Мир Пур Кхас (Пакистан) (56 км)
Погода в Татте (Пакистан) (87 км)
Погода в Бадине (Пакистан) (96 км)
Погода в Навабшахе (Пакистан) (97 км)
Погода в Чоре (Пакистан) (137 км)
Погода в Карачи (Пакистан) (140 км)
Погода в Митхи (Пакистан) (154 км)
Погода в Пад Идан (Пакистан) (166 км)
Погода в Мохенджо-Даро (Пакистан) (218 км)

Пояснения к столбцам:

Ветер - указаны скорость ветра в м/с - средняя за 10 мин, порывы в срок и между сроками (в фигурных скобках) и направление, откуда дует ветер: С - северный, СВ - северо-восточный, В - восточный, ЮВ - юго-восточный, Ю - южный, ЮЗ - юго-западный, З - западный, СЗ - северо-западный.
Видимость - горизонтальная дальность видимости в метрах или километрах. При видимости от 1 до 10 км при отсутствии осадков обычно наблюдается дымка, при ухудшении видимости до 1 км и менее - туман. В сухую погоду видимость может ухудшаться дымом, пылью или мглою.
Явления - указаны атмосферные явления, наблюдавшиеся в срок или в последний час перед сроком; фигурными скобками обозначены явления, наблюдавшиеся между сроками (за 1-3 часа до срока); квадратными скобками обозначены град или гололедные отложения с указанием их диаметра в мм.
Облачность - указаны через наклонную черту общая и нижняя облачность в баллах и высота нижней границы облаков в метрах; квадратными скобками обозначены формы облаков: Ci - перистые, Cs - перисто-слоистые, Cc - перисто-кучевые, Ac - высококучевые, As - высокослоистые, Sc - слоисто-кучевые, Ns - слоисто-дождевые, Cu - кучевые, Cb - кучево-дождевые. Подробнее классификацию облаков см. в Атласе облаков (PDF).
T - Температура воздуха - температура, измеренная на высоте 2 м над землей.
Td - Температура точки росы - температура, при понижении до которой содержащийся в воздухе водяной пар достигнет насыщения.
f - Относительная влажность воздуха - влажноcть воздуха, измеренная на высоте 2 м над землей.
Te - Эффективная температура - температура, которую ощущает одетый по сезону человек в тени. Характеристика душности погоды. При расчете учитывается влияние влажности воздуха и скорости ветра на теплоощущения человека.
Tes - Эффективная температура на солнце - температура, которую ощущает человек, с поправкой на солнечный нагрев. Характеристика знойности погоды. Зависит от высоты солнца над горизонтом, облачности и скорости ветра. Ночью, в пасмурную погоду, а также при ветре 12 м/с и более поправка равна нулю.
P - Атмосферное давление - приведенное к уровню моря атмосферное давление.
Po - Атмосферное давление - измеренное на уровне метеостанции атмосферное давление.
Tmin - Минимальная температура - минимум температуры воздуха на высоте 2 м над землей.
Tmax - Максимальная температура - максимум температуры воздуха на высоте 2 м над землей.
R - Количество осадков - Количество выпавших осадков за период времени, мм. При наведении курсора мыши на число - период времени, за который выпало указанное количество осадков.
R24 - Количество осадков - Количество выпавших осадков за 24 часа, мм.
S - Снежный покров - Высота снежного покрова, см. При наведении курсора мыши на число - состояние снежного покрова и степень покрытия местности в баллах.